User: anonymous   Login
Location: Boca do Mato
(22.9085°S, 43.2930°W)
Time: 14:53:00
(UTC+00:00)
Language:

Cosmos 2266 Rocket - Orbit

View from above orbital plane
View from above orbital plane
View from above satellite
View from above satellite

Ground track
Ground track

The orbit data is extracted from the following two-line orbital elements,

1 22889U 93070B   21128.92514510  .00000119  00000-0  10226-3 0  9994
2 22889  82.9449 339.9650 0049335 203.0322 156.8624 13.77945631383178
Epoch (UTC): 08 May 2021 22:12:12
Eccentricity: 0.0049335
inclination: 82.9449°
perigee height: 935 km
apogee height: 1007 km
right ascension of ascending node: 339.9650°
argument of perigee: 203.0322°
revolutions per day: 13.77945631
mean anomaly at epoch: 156.8624°
orbit number at epoch: 38317

The dashed part of the orbit path shows where the satellite is in the earth's shadow,  

DLR